Temp
66 66 66 66 65 62 60 61 61 57 57 60 60 63 64 64 64 63 63 62 62 60 59 60 62 63 64 64 65 65 65 65 66 66 67 66 66 66
65 67 67 66 65 63 63 64 64 62 57 61 60 61 63 62 63 62 63 62 60 60 60 60 60 61 61 61 62 63 63 63 63 63 63 63 63 64
65 65 63 64 63 64 64 63 62 62 59 59 60 61 61 61 62 62 63 62 60 59 60 59 59 59 60 60 60 60 61 60 60 60 61 61 61 61
64 63 62 64 64 64 63 63 62 62 60 57 59 59 60 61 61 60 60 62 61 60 58 58 57 57 56 56 56 56 56 56 57 57 58 58 59 58
65 65 64 63 63 63 63 62 62 61 60 59 58 59 60 60 60 60 60 59 60 58 56 56 55 55 54 53 53 52 51 51 52 53 54 55 55 55
65 65 62 62 63 63 62 62 61 60 60 59 58 58 58 59 59 57 56 58 57 59 57 56 54 54 53 52 52 52 49 49 48 49 49 49 49 50
64 66 63 61 59 61 62 61 61 60 59 58 58 57 56 56 55 55 55 56 55 56 54 54 55 54 52 53 54 52 49 48 48 47 47 47 46 47
64 63 62 59 56 55 57 58 61 60 59 58 58 56 56 55 55 56 56 56 52 58 57 56 57 54 51 49 49 48 48 48 47 47 47 46 46 46
65 65 65 64 61 60 53 54 54 54 58 62 58 58 56 56 57 57 58 59 57 58 59 55 56 51 50 49 48 47 47 46 46 47 46 46 46 45
66 66 64 64 61 62 61 61 60 61 61 61 61 60 60 59 61 62 62 62 61 63 61 53 54 51 49 45 47 46 46 45 45 46 46 46 45 46
66 66 65 61 50 51 60 59 59 58 53 51 51 50 50 52 60 64 61 60 58 59 60 56 54 51 49 46 45 47 45 45 45 46 46 47 46 45
64 62 53 57 48 51 61 60 58 58 59 58 56 53 53 54 52 62 66 61 60 56 60 57 55 53 48 49 46 43 42 46 46 46 47 47 46 49
64 61 58 47 49 50 55 62 59 61 56 60 60 61 61 61 62 63 65 62 62 60 64 60 57 57 55 49 48 47 47 46 44 44 46 46 46 46
65 64 55 46 49 51 56 47 48 56 63 62 61 61 61 63 64 63 64 63 64 64 64 63 59 58 55 52 49 51 51 48 49 47 45 47 45 46
67 52 43 46 46 48 47 47 49 64 64 62 62 63 64 64 64 62 62 63 62 63 66 64 60 61 59 55 52 51 50 51 52 51 50 44 45 44
52 55 54 54 54 56 54 54 66 66 65 65 64 65 64 64 62 62 59 59 57 56 59 59 61 59 57 55 55 50 51 49 51 50 49 49 50 49
60 61 63 63 63 63 64 65 67 68 67 67 66 64 64 63 62 62 60 59 57 54 53 56 53 51 48 50 52 52 52 51 50 49 49 47 47 48
64 65 66 65 64 65 65 66 68 66 69 69 67 66 65 65 64 64 64 61 58 56 54 54 53 51 51 47 47 51 50 50 50 50 49 45 43 42
69 69 69 69 69 69 69 69 69 70 70 71 69 67 67 67 60 65 65 63 60 57 56 55 53 51 47 46 44 42 48 51 51 49 46 43 42 44
70 71 70 71 72 72 72 71 70 70 69 69 69 68 66 67 64 64 63 61 60 59 57 56 54 52 49 48 46 44 40 47 46 45 44 43 44 42
70 72 73 73 72 73 73 73 73 72 71 68 67 67 66 66 64 65 64 51 54 60 57 54 54 46 51 50 42 41 43 42 44 44 42 39 39 40
72 72 73 73 73 73 72 73 73 67 68 70 70 69 68 69 67 66 66 63 60 61 56 52 53 51 48 45 42 41 40 41 43 44 43 43 38 31
75 75 76 76 74 74 75 73 72 70 71 71 71 70 69 69 67 66 65 65 62 60 49 49 49 49 45 43 38 38 42 42 43 40 40 42 42 43
MSLP
1007.01 1006.80 1006.95 1006.91 1007.33 1007.88 1008.51 1009.06 1008.90 1009.89 1011.04 1011.63 1012.08 1012.26 1012.45 1013.17 1013.94 1014.85 1015.65 1016.32 1017.25 1018.22 1018.90 1019.51 1020.43 1021.13 1021.87 1022.35 1022.45 1022.79 1022.99 1023.43 1023.78 1023.91 1024.38 1024.60 1024.71 1024.92
1007.18 1007.09 1007.18 1007.26 1007.51 1007.87 1008.23 1008.76 1008.71 1009.48 1010.71 1011.52 1012.33 1012.46 1012.94 1013.82 1014.69 1015.31 1016.25 1017.04 1018.09 1018.63 1019.19 1020.07 1020.75 1021.63 1022.20 1022.45 1022.72 1023.14 1023.54 1024.01 1024.07 1024.40 1024.74 1024.85 1024.98 1025.24
1007.31 1007.45 1007.57 1007.60 1007.69 1007.51 1008.20 1008.52 1009.09 1009.75 1010.70 1012.04 1012.68 1013.20 1013.71 1014.42 1015.45 1016.15 1017.04 1017.67 1018.51 1019.13 1019.88 1020.65 1021.40 1022.01 1022.33 1022.70 1023.04 1023.44 1023.96 1024.19 1024.36 1024.59 1024.91 1025.13 1025.32 1025.53
1007.39 1007.66 1007.70 1007.82 1007.79 1008.17 1008.58 1009.08 1009.46 1010.21 1010.89 1011.86 1013.04 1013.75 1014.18 1015.02 1015.75 1016.34 1017.26 1018.04 1018.95 1019.87 1020.60 1021.33 1021.93 1022.32 1022.64 1022.91 1023.38 1023.88 1024.22 1024.41 1024.65 1024.99 1025.16 1025.50 1026.12 1026.21
1007.17 1007.45 1007.83 1007.95 1008.14 1008.42 1008.84 1009.48 1010.09 1010.91 1011.62 1012.24 1013.39 1014.14 1014.59 1015.38 1016.20 1017.23 1018.18 1018.98 1019.90 1020.70 1021.37 1021.96 1022.38 1022.74 1023.10 1023.51 1023.89 1024.19 1024.51 1024.79 1024.99 1025.42 1025.96 1026.21 1026.31 1026.60
1007.49 1007.76 1008.11 1008.46 1008.60 1008.78 1009.32 1009.90 1010.53 1011.24 1011.91 1012.74 1013.79 1014.76 1015.45 1016.53 1017.09 1017.79 1019.10 1020.04 1020.80 1021.41 1022.04 1022.64 1022.99 1023.37 1023.68 1023.96 1024.35 1024.78 1025.06 1025.48 1025.80 1026.03 1026.26 1026.49 1026.87 1027.03
1008.02 1008.23 1008.73 1008.96 1008.98 1009.15 1009.58 1010.26 1010.83 1011.59 1012.40 1013.19 1014.30 1015.25 1016.23 1017.02 1017.92 1018.99 1019.48 1020.44 1021.44 1021.92 1022.74 1023.17 1023.31 1023.82 1024.38 1024.52 1024.89 1025.25 1025.50 1025.91 1026.19 1026.38 1026.63 1026.89 1027.03 1027.24
1008.40 1008.85 1009.16 1009.31 1009.54 1009.72 1010.15 1010.65 1011.12 1011.71 1012.59 1013.44 1014.70 1015.66 1016.68 1017.64 1018.60 1019.07 1019.64 1020.41 1021.47 1022.10 1022.32 1022.99 1023.31 1024.09 1024.75 1025.24 1025.53 1025.56 1025.85 1026.13 1026.35 1026.52 1026.66 1026.97 1027.22 1027.39
1008.66 1009.02 1009.30 1009.90 1010.15 1010.45 1010.84 1011.42 1012.03 1012.55 1012.85 1013.42 1014.55 1015.76 1016.87 1017.61 1018.11 1018.96 1019.40 1019.84 1020.33 1021.39 1021.89 1023.07 1023.80 1024.63 1025.36 1025.90 1025.87 1026.01 1026.26 1026.48 1026.53 1026.77 1026.86 1027.11 1027.33 1027.56
1008.90 1009.28 1009.79 1010.16 1010.69 1011.02 1011.45 1012.09 1012.78 1013.42 1013.88 1014.43 1014.93 1015.86 1016.52 1017.48 1017.79 1018.05 1018.80 1019.36 1020.39 1020.80 1021.31 1022.98 1023.81 1024.72 1025.53 1026.05 1026.29 1026.40 1026.45 1026.58 1026.70 1026.89 1026.97 1027.14 1027.27 1027.29
1009.41 1009.74 1010.21 1010.78 1011.21 1011.47 1011.87 1012.58 1013.41 1014.27 1014.89 1015.30 1015.76 1016.32 1017.08 1017.62 1017.75 1018.38 1018.81 1019.36 1020.25 1020.79 1021.10 1022.00 1023.37 1024.51 1025.48 1026.02 1026.32 1026.58 1026.65 1026.72 1026.80 1026.87 1026.82 1026.69 1026.66 1026.61
1010.08 1010.56 1010.91 1011.31 1011.82 1012.13 1012.43 1012.91 1013.78 1014.67 1015.43 1016.36 1017.09 1017.44 1017.48 1017.95 1018.22 1018.23 1018.46 1019.14 1019.86 1020.64 1020.64 1021.28 1022.92 1023.63 1025.03 1025.48 1026.02 1026.22 1026.57 1026.74 1026.70 1026.61 1026.60 1026.35 1026.01 1026.12
1010.57 1011.21 1011.85 1012.03 1012.39 1012.66 1013.03 1013.40 1013.87 1014.65 1015.50 1016.17 1016.90 1017.56 1017.82 1018.03 1018.19 1018.27 1018.28 1018.81 1019.08 1019.03 1019.24 1020.30 1021.89 1022.49 1022.96 1024.25 1025.26 1025.69 1025.82 1025.98 1026.22 1026.28 1026.26 1026.13 1026.18 1026.14
1010.89 1011.53 1012.35 1012.61 1012.68 1013.10 1013.50 1013.94 1014.54 1015.07 1015.52 1016.20 1016.91 1017.49 1017.75 1017.88 1017.90 1018.07 1018.27 1018.30 1018.07 1018.26 1018.74 1019.35 1020.59 1021.34 1021.97 1023.04 1023.84 1024.27 1024.66 1024.89 1025.17 1025.40 1025.83 1025.95 1026.43 1026.52
1011.25 1011.90 1012.46 1012.70 1012.99 1013.37 1013.96 1014.45 1014.95 1015.22 1015.66 1016.21 1016.61 1016.97 1017.11 1017.32 1017.67 1018.22 1018.54 1018.46 1018.24 1018.45 1018.73 1018.97 1019.51 1020.04 1020.55 1021.40 1022.26 1023.04 1023.79 1023.94 1024.04 1024.43 1025.07 1025.67 1025.96 1026.25
1011.90 1012.49 1012.75 1012.89 1013.00 1013.57 1014.32 1014.74 1014.83 1015.10 1015.35 1015.72 1016.02 1016.35 1016.79 1017.37 1017.72 1018.09 1018.58 1018.78 1018.90 1019.22 1019.25 1019.27 1019.26 1019.52 1020.48 1020.81 1021.51 1022.62 1022.86 1023.28 1023.52 1023.98 1024.26 1024.37 1024.42 1024.76
1011.94 1012.37 1012.56 1012.76 1013.12 1013.79 1014.08 1014.31 1014.42 1014.66 1014.88 1015.07 1015.55 1016.09 1016.73 1017.09 1017.47 1017.82 1018.27 1018.59 1018.83 1019.39 1019.73 1019.78 1020.27 1020.49 1021.08 1021.28 1022.04 1022.32 1022.75 1023.29 1023.57 1023.98 1024.27 1024.47 1024.49 1024.60
1011.55 1011.71 1011.94 1012.37 1012.77 1013.10 1013.45 1013.62 1013.55 1013.72 1013.94 1014.21 1014.76 1015.47 1016.07 1016.54 1016.85 1017.14 1017.34 1017.87 1018.27 1018.78 1019.40 1019.96 1020.40 1020.94 1021.63 1022.49 1022.58 1022.78 1022.98 1023.45 1023.76 1023.97 1024.29 1024.81 1024.91 1025.23
1010.96 1011.05 1011.17 1011.45 1011.97 1012.39 1012.62 1012.71 1012.74 1012.91 1013.08 1013.48 1013.97 1014.55 1015.01 1015.50 1015.73 1016.21 1016.75 1017.38 1017.88 1018.52 1018.96 1019.29 1020.34 1020.98 1021.77 1022.60 1023.40 1023.68 1023.42 1023.60 1023.99 1024.41 1024.50 1024.75 1024.85 1024.75
1010.46 1010.21 1010.30 1010.46 1010.71 1011.16 1011.52 1011.72 1011.84 1012.12 1012.43 1012.71 1013.22 1013.67 1014.23 1014.71 1015.26 1015.76 1016.22 1016.70 1017.17 1017.51 1018.21 1019.04 1019.79 1020.50 1021.14 1021.73 1022.93 1023.91 1023.67 1023.41 1024.05 1024.19 1024.58 1024.57 1024.40 1024.93
1009.96 1009.66 1009.67 1009.66 1009.85 1010.08 1010.43 1010.71 1011.03 1011.39 1011.87 1012.38 1012.72 1013.15 1013.42 1013.92 1014.40 1014.92 1015.35 1015.88 1016.45 1016.93 1017.75 1018.63 1018.75 1019.11 1020.37 1021.03 1022.40 1023.35 1023.95 1023.91 1024.50 1024.12 1024.80 1025.10 1024.91 1024.82
1009.16 1009.16 1008.96 1008.78 1009.03 1009.36 1009.59 1009.88 1010.31 1010.93 1011.38 1011.76 1011.98 1012.35 1012.79 1013.11 1013.66 1014.12 1014.68 1015.13 1015.75 1016.26 1016.95 1018.11 1018.87 1019.36 1020.05 1021.09 1022.38 1023.21 1023.13 1023.64 1024.29 1024.19 1024.31 1024.68 1024.73 1024.66
1007.88 1008.11 1008.21 1008.19 1008.11 1008.41 1008.77 1009.15 1009.58 1009.93 1010.15 1010.51 1011.04 1011.49 1011.89 1012.42 1012.82 1013.23 1013.74 1014.25 1014.85 1015.77 1017.00 1018.49 1019.17 1019.52 1020.38 1021.16 1022.08 1023.21 1023.40 1023.87 1024.00 1024.14 1024.31 1024.17 1024.14 1024.16
Wind_Speed
1 2 1 3 4 3 4 6 6 6 2 3 3 4 8 11 16 15 17 24 21 18 16 16 14 14 12 10 12 11 11 10 9 9 7 7 7 7
2 2 3 2 3 6 6 8 3 7 5 3 3 5 11 11 19 16 16 20 19 16 16 15 15 13 12 11 11 10 10 8 9 10 9 9 10 11
1 2 4 2 3 7 5 5 5 7 9 5 6 9 14 16 14 12 13 11 11 17 17 15 14 12 13 12 11 11 10 10 11 11 11 12 13 13
3 1 2 2 6 7 5 6 7 8 11 14 10 8 13 15 14 15 10 10 11 16 16 13 12 12 12 12 12 12 11 12 13 13 14 14 13 14
2 2 7 6 5 6 7 8 8 8 9 11 10 9 8 12 12 13 11 12 9 18 16 14 13 13 14 14 14 14 13 13 13 13 12 13 14 14
4 5 7 6 5 6 9 9 9 9 12 12 12 11 9 10 11 13 10 8 8 7 12 11 13 17 17 16 16 15 14 13 13 13 13 13 12 13
5 7 6 7 9 10 8 9 12 10 12 11 12 10 11 11 11 8 10 9 6 4 6 5 7 7 7 12 14 15 14 13 12 13 12 11 11 11
7 8 6 8 9 13 13 12 11 14 16 11 12 12 9 11 10 10 11 10 5 2 6 7 6 6 5 5 12 13 12 11 11 11 11 11 10 9
7 8 7 7 9 11 15 16 15 15 11 15 16 13 15 13 11 10 10 7 6 7 9 7 6 6 5 6 9 10 10 10 9 9 9 8 8 7
6 9 9 9 9 11 12 14 13 12 11 9 13 13 14 13 10 12 8 9 9 7 8 6 4 5 5 4 7 7 8 8 9 8 8 8 8 6
7 9 10 11 12 12 14 14 13 12 13 15 13 14 13 12 7 8 7 11 8 5 5 5 4 5 4 4 4 7 8 8 8 9 9 8 9 11
8 10 12 11 13 12 13 15 14 13 14 12 8 7 11 6 2 1 8 9 8 4 5 5 9 5 4 3 5 4 4 10 10 8 6 2 8 4
7 7 6 10 12 11 11 12 13 15 13 11 10 8 7 3 3 4 4 6 8 4 8 6 6 6 3 5 4 6 7 5 5 6 8 5 4 4
9 7 5 8 10 13 9 14 14 12 9 9 8 7 7 6 4 4 5 2 2 6 9 8 6 6 5 4 5 5 7 5 6 5 5 5 6 2
7 8 9 8 10 10 17 15 12 8 9 8 7 6 6 5 7 6 4 4 6 6 4 4 4 7 6 5 6 5 6 5 4 3 6 5 6 5
11 6 5 6 7 10 10 11 7 8 8 7 6 6 4 6 5 4 3 3 3 3 6 5 3 2 3 2 7 5 3 5 4 3 3 1 3 4
8 5 4 5 7 8 7 8 6 9 9 6 6 6 6 5 4 4 4 4 3 5 3 0 7 8 7 3 4 5 4 4 4 4 3 1 2 2
7 6 7 8 8 7 8 8 6 9 7 6 5 7 6 7 7 7 6 6 5 5 4 3 4 3 3 6 11 3 3 4 3 3 2 2 2 3
6 7 7 8 10 9 8 7 7 7 6 9 8 8 8 9 7 8 7 5 3 5 5 5 4 4 3 3 2 16 4 3 2 3 3 2 2 2
6 6 6 7 8 10 10 8 5 7 5 4 8 8 6 7 4 7 6 5 6 5 5 6 6 5 6 5 5 1 7 5 2 2 1 2 3 13
7 7 7 7 6 6 8 8 9 7 9 5 4 6 6 5 5 6 7 8 7 5 6 6 7 10 7 6 5 3 2 7 2 3 1 2 2 2
9 9 8 5 7 6 5 7 6 5 6 9 9 6 7 8 8 7 8 6 7 6 4 7 8 7 3 4 3 4 2 3 4 2 3 6 4 2
10 10 9 8 5 7 8 7 6 5 7 8 9 8 7 7 7 6 6 8 5 6 10 8 5 3 3 5 6 4 6 4 4 2 3 14 12 11
Wind_Direction
325 283 253 5 52 127 139 204 151 144 94 95 97 111 109 117 123 126 124 113 112 122 123 123 127 117 119 123 108 105 102 103 93 84 88 87 76 67
321 17 343 20 34 95 218 188 149 130 124 99 76 114 117 121 124 119 125 123 121 119 118 126 120 117 118 108 103 102 98 108 96 87 86 86 83 83
105 11 47 77 144 173 118 122 110 119 115 103 112 118 122 123 126 121 127 127 121 119 117 112 116 124 123 118 110 107 108 98 96 97 95 93 89 86
184 111 159 284 111 100 103 98 106 112 126 123 123 119 118 125 120 106 100 101 111 102 104 108 106 104 103 101 101 103 103 102 100 98 91 86 92 85
90 150 147 172 123 117 106 96 101 113 115 125 124 119 108 107 105 104 99 92 89 95 86 89 98 100 98 99 100 99 99 99 95 94 98 96 87 85
83 83 72 60 78 110 108 112 118 123 121 118 117 119 107 105 103 112 102 107 104 82 69 91 95 91 96 100 108 112 104 100 102 100 94 92 97 97
93 96 92 81 64 110 125 125 122 127 126 117 118 112 111 113 114 115 111 106 95 108 117 117 107 99 90 90 105 109 102 102 102 101 108 112 107 109
107 100 103 89 77 101 107 108 125 134 133 125 123 125 113 117 130 134 134 141 123 163 122 116 116 107 90 74 104 106 107 112 116 120 120 122 124 119
108 114 100 100 98 96 92 91 82 76 103 137 130 133 129 147 145 139 146 147 133 160 130 121 114 93 97 104 101 112 118 118 116 129 138 140 149 158
107 109 113 114 109 111 113 112 108 110 111 121 126 137 139 152 151 152 158 120 128 151 138 120 139 116 105 100 119 128 131 141 148 156 163 179 194 196
87 109 97 103 108 106 114 116 106 97 81 95 100 112 126 158 155 164 142 139 152 150 195 117 152 110 146 152 154 179 179 179 177 177 183 193 209 210
85 86 98 114 118 116 125 123 119 127 124 120 112 116 167 166 42 52 155 149 150 151 207 117 143 144 160 150 168 171 195 219 209 203 217 313 354 88
107 107 108 112 123 117 125 135 138 140 139 138 141 154 179 197 217 223 175 160 179 200 168 127 162 182 169 145 169 186 192 184 195 207 227 246 307 40
117 119 108 109 121 124 126 121 122 132 139 139 145 164 178 196 197 119 86 51 219 177 156 133 155 179 151 163 166 173 196 178 190 181 183 192 210 103
113 99 115 116 118 110 131 134 147 142 148 149 163 174 186 174 116 94 86 81 57 82 105 125 127 189 177 173 157 164 135 193 187 172 162 166 175 182
108 118 123 115 105 118 132 149 160 159 163 175 172 170 144 136 139 138 142 146 94 61 30 19 51 38 161 114 136 152 174 167 160 139 126 272 247 154
132 140 145 124 127 149 163 182 187 182 184 181 174 137 144 146 152 154 169 175 151 152 156 104 63 72 63 64 119 152 141 118 125 139 125 191 53 120
160 163 160 148 154 169 181 201 215 174 187 166 148 152 161 176 182 182 185 183 172 167 144 152 137 80 51 52 45 69 76 108 123 134 101 107 295 100
177 182 180 172 170 178 197 208 194 175 186 173 168 173 180 193 184 182 192 181 178 159 168 158 142 135 145 151 73 46 86 93 94 102 119 182 198 253
221 191 193 199 187 181 188 204 189 179 207 188 172 178 186 192 173 181 186 184 190 179 174 157 159 162 175 184 145 95 4 95 88 135 290 294 256 93
226 230 223 200 192 189 190 193 197 192 191 193 185 177 187 183 181 188 190 199 196 190 169 163 185 139 122 110 101 140 71 47 355 140 118 271 271 292
212 227 249 208 189 199 203 197 200 185 180 192 203 194 190 199 206 200 199 198 197 197 131 125 127 123 112 113 130 153 127 128 228 173 221 238 177 212
205 209 224 242 211 191 201 203 205 196 196 198 198 204 202 202 206 210 202 199 185 170 136 130 124 91 91 128 121 138 142 151 182 140 249 222 238 256